Snow/Ice From: 17-12-2017 10:00 Until: 18-12-2017 06:00 warning for: Snow/Ice Level: Yellow info button

Although rather usual in this region, locally or potentially dangerous phenomena are expected. (such as local winds, summer thunderstorms, rising streams or high waves) Be aware and pay attention to the latest weather updates, especially if you carry out activities exposed to weather or close to a stream or shoreline. 


Meteo18 Weather Cam more information Meteo18 Weather Cam


Thunder radar more information blitzortung!


warning for Snow/Ice more information rain snow radar


Visit our other weather sites:

Template documentation
and downloads

And another site



Weather Underground History page Text

Daily Summary for August 14, 2016 Units:  Metric    English   Both
« Previous Day
Next Day »
Daily Weekly Monthly Yearly Custom
  High: Low: Average:
Temperature: 30.9 °C 17.3 °C 24.5 °C
Dew Point: 16.4 °C 12.2 °C 14 °C
Humidity: 75 % 37 % 54 %
Wind Speed: 17.7 km/h 0.0 km/h 5.4 km/h
Wind Gust: 24.1 km/h - -
Wind:- - SE
Pressure: 1021.6 hPa 1018.8 hPa -
Precipitation: 0.0 mm    
Historical Graphs
 
 
Tabular Data for August 14, 2016
Time Temperature Dew Point Pressure Wind Wind Speed Wind Gust Humidity Rainfall Rate (Hourly)
00:02 22.1 °C 14.0 °C 1021.6 hPa North 1.6 km/h 6.4 km/h 60 % 0.0 mm
00:12 22.2 °C 14.1 °C 1021.6 hPa NW 1.6 km/h 8.0 km/h 60 % 0.0 mm
00:17 22.2 °C 14.1 °C 1021.6 hPa NNW 3.2 km/h 8.0 km/h 60 % 0.0 mm
00:22 22.1 °C 13.7 °C 1021.6 hPa Calm   8.0 km/h 59 % 0.0 mm
00:27 22.0 °C 13.9 °C 1021.6 hPa NNW 1.6 km/h 8.0 km/h 60 % 0.0 mm
00:32 21.9 °C 13.8 °C 1021.6 hPa NW 6.4 km/h 8.0 km/h 60 % 0.0 mm
00:37 21.9 °C 13.8 °C 1021.6 hPa NNE 6.4 km/h 6.4 km/h 60 % 0.0 mm
00:42 21.9 °C 13.8 °C 1021.6 hPa NNW 4.8 km/h 8.0 km/h 60 % 0.0 mm
00:52 22.0 °C 13.6 °C 1021.6 hPa NNW 1.6 km/h 8.0 km/h 59 % 0.0 mm
00:57 21.9 °C 13.8 °C 1021.6 hPa NNW 3.2 km/h 8.0 km/h 60 % 0.0 mm
01:02 21.8 °C 13.7 °C 1021.6 hPa NNE 4.8 km/h 8.0 km/h 60 % 0.0 mm
01:12 21.6 °C 13.8 °C 1021.6 hPa North 3.2 km/h 8.0 km/h 61 % 0.0 mm
01:17 21.4 °C 13.8 °C 1021.6 hPa North 3.2 km/h 6.4 km/h 62 % 0.0 mm
01:22 21.4 °C 13.8 °C 1021.6 hPa NNW 1.6 km/h 6.4 km/h 62 % 0.0 mm
01:32 21.2 °C 13.9 °C 1021.6 hPa North 1.6 km/h 6.4 km/h 63 % 0.0 mm
01:37 21.1 °C 13.8 °C 1021.6 hPa NNW 1.6 km/h 4.8 km/h 63 % 0.0 mm
01:42 21.0 °C 13.7 °C 1021.6 hPa NNW 3.2 km/h 4.8 km/h 63 % 0.0 mm
01:47 20.9 °C 13.6 °C 1021.6 hPa North 1.6 km/h 6.4 km/h 63 % 0.0 mm
01:52 20.8 °C 13.7 °C 1021.6 hPa NNE 1.6 km/h 6.4 km/h 64 % 0.0 mm
01:57 20.8 °C 13.7 °C 1021.6 hPa Calm   6.4 km/h 64 % 0.0 mm
02:02 20.7 °C 13.6 °C 1021.6 hPa Calm   6.4 km/h 64 % 0.0 mm
02:12 20.4 °C 13.6 °C 1021.6 hPa NNE 3.2 km/h 6.4 km/h 65 % 0.0 mm
02:17 20.3 °C 13.5 °C 1021.2 hPa NNE 3.2 km/h 6.4 km/h 65 % 0.0 mm
02:22 20.3 °C 13.5 °C 1021.2 hPa Calm   4.8 km/h 65 % 0.0 mm
02:32 20.3 °C 13.5 °C 1021.2 hPa North 3.2 km/h 4.8 km/h 65 % 0.0 mm
02:37 20.2 °C 13.4 °C 1021.2 hPa NNW 1.6 km/h 3.2 km/h 65 % 0.0 mm
02:42 20.2 °C 13.4 °C 1021.2 hPa North 3.2 km/h 3.2 km/h 65 % 0.0 mm
02:52 20.1 °C 13.5 °C 1021.2 hPa Calm   4.8 km/h 66 % 0.0 mm
02:57 20.1 °C 13.5 °C 1021.2 hPa Calm   8.0 km/h 66 % 0.0 mm
03:02 20.0 °C 13.5 °C 1021.2 hPa Calm   8.0 km/h 66 % 0.0 mm
03:12 20.1 °C 13.5 °C 1021.2 hPa Calm   4.8 km/h 66 % 0.0 mm
03:17 20.1 °C 13.3 °C 1021.2 hPa NNW 3.2 km/h 3.2 km/h 65 % 0.0 mm
03:32 20.2 °C 13.4 °C 1020.9 hPa Calm   3.2 km/h 65 % 0.0 mm
03:42 20.0 °C 13.2 °C 1020.9 hPa Calm   4.8 km/h 65 % 0.0 mm
03:47 19.9 °C 13.1 °C 1020.9 hPa Calm   4.8 km/h 65 % 0.0 mm
03:52 19.8 °C 13.0 °C 1020.9 hPa Calm   4.8 km/h 65 % 0.0 mm
03:57 19.7 °C 12.9 °C 1020.9 hPa WNW 1.6 km/h 3.2 km/h 65 % 0.0 mm
04:02 19.7 °C 13.2 °C 1020.9 hPa NNW 1.6 km/h 4.8 km/h 66 % 0.0 mm
04:12 19.8 °C 13.0 °C 1020.9 hPa NW 3.2 km/h 4.8 km/h 65 % 0.0 mm
04:17 19.9 °C 13.1 °C 1020.9 hPa Calm   4.8 km/h 65 % 0.0 mm
04:22 20.0 °C 13.2 °C 1020.5 hPa Calm   4.8 km/h 65 % 0.0 mm
04:27 19.9 °C 13.1 °C 1020.5 hPa Calm   4.8 km/h 65 % 0.0 mm
04:32 19.8 °C 13.3 °C 1020.5 hPa NW 1.6 km/h 3.2 km/h 66 % 0.0 mm
04:42 19.7 °C 13.2 °C 1020.5 hPa NNW 1.6 km/h 3.2 km/h 66 % 0.0 mm
04:52 19.7 °C 13.2 °C 1020.5 hPa NNW 3.2 km/h 4.8 km/h 66 % 0.0 mm
04:57 19.4 °C 13.1 °C 1020.5 hPa North 3.2 km/h 6.4 km/h 67 % 0.0 mm
05:02 19.1 °C 13.3 °C 1020.5 hPa NNW 3.2 km/h 6.4 km/h 69 % 0.0 mm
05:12 19.1 °C 13.3 °C 1020.5 hPa Calm   4.8 km/h 69 % 0.0 mm
05:22 19.0 °C 13.2 °C 1020.5 hPa NNW 1.6 km/h 4.8 km/h 69 % 0.0 mm
05:32 18.7 °C 12.9 °C 1020.5 hPa NNW 1.6 km/h 4.8 km/h 69 % 0.0 mm
05:37 18.6 °C 13.0 °C 1020.5 hPa NW 3.2 km/h 4.8 km/h 70 % 0.0 mm
05:42 18.5 °C 12.9 °C 1020.5 hPa NNW 1.6 km/h 3.2 km/h 70 % 0.0 mm
05:52 18.5 °C 12.9 °C 1020.5 hPa NNW 1.6 km/h 3.2 km/h 70 % 0.0 mm
05:57 18.4 °C 12.8 °C 1020.5 hPa NNW 1.6 km/h 4.8 km/h 70 % 0.0 mm
06:02 18.3 °C 13.0 °C 1020.5 hPa NW 3.2 km/h 4.8 km/h 71 % 0.0 mm
06:07 18.1 °C 12.8 °C 1020.5 hPa Calm   6.4 km/h 71 % 0.0 mm
06:12 17.7 °C 12.8 °C 1020.5 hPa NNW 3.2 km/h 6.4 km/h 73 % 0.0 mm
06:17 17.6 °C 12.7 °C 1020.5 hPa NNW 1.6 km/h 6.4 km/h 73 % 0.0 mm
06:27 17.3 °C 12.8 °C 1020.9 hPa NNW 1.6 km/h 3.2 km/h 75 % 0.0 mm
06:32 17.3 °C 12.8 °C 1020.9 hPa NNW 3.2 km/h 3.2 km/h 75 % 0.0 mm
06:42 17.4 °C 12.7 °C 1020.9 hPa NW 3.2 km/h 4.8 km/h 74 % 0.0 mm
06:47 17.5 °C 12.8 °C 1020.9 hPa NNW 1.6 km/h 4.8 km/h 74 % 0.0 mm
06:57 17.7 °C 13.0 °C 1020.9 hPa North 1.6 km/h 4.8 km/h 74 % 0.0 mm
07:02 17.9 °C 13.0 °C 1020.9 hPa NW 4.8 km/h 4.8 km/h 73 % 0.0 mm
07:07 18.0 °C 12.9 °C 1020.9 hPa NW 1.6 km/h 4.8 km/h 72 % 0.0 mm
07:12 18.2 °C 13.1 °C 1020.9 hPa NW 1.6 km/h 4.8 km/h 72 % 0.0 mm
07:17 18.3 °C 13.2 °C 1020.5 hPa North 1.6 km/h 4.8 km/h 72 % 0.0 mm
07:22 18.2 °C 13.1 °C 1020.9 hPa NW 1.6 km/h 4.8 km/h 72 % 0.0 mm
07:32 18.4 °C 13.3 °C 1020.9 hPa NNE 1.6 km/h 4.8 km/h 72 % 0.0 mm
07:42 18.7 °C 13.5 °C 1020.9 hPa NW 3.2 km/h 3.2 km/h 72 % 0.0 mm
07:47 18.8 °C 13.4 °C 1020.9 hPa Calm   4.8 km/h 71 % 0.0 mm
07:57 19.3 °C 13.7 °C 1020.9 hPa NNW 1.6 km/h 4.8 km/h 70 % 0.0 mm
08:02 19.6 °C 14.0 °C 1020.9 hPa North 1.6 km/h 3.2 km/h 70 % 0.0 mm
08:07 19.9 °C 14.0 °C 1020.9 hPa North 4.8 km/h 4.8 km/h 69 % 0.0 mm
08:12 20.1 °C 14.0 °C 1020.9 hPa NNE 1.6 km/h 6.4 km/h 68 % 0.0 mm
08:17 20.3 °C 14.0 °C 1020.9 hPa NNE 3.2 km/h 8.0 km/h 67 % 0.0 mm
08:27 20.6 °C 14.3 °C 1021.2 hPa North 3.2 km/h 8.0 km/h 67 % 0.0 mm
08:32 20.8 °C 14.2 °C 1021.2 hPa NNE 4.8 km/h 6.4 km/h 66 % 0.0 mm
08:37 21.0 °C 14.4 °C 1021.2 hPa NNE 1.6 km/h 6.4 km/h 66 % 0.0 mm
08:42 21.3 °C 14.5 °C 1021.2 hPa NNW 3.2 km/h 6.4 km/h 65 % 0.0 mm
08:47 21.6 °C 14.5 °C 1021.2 hPa North 1.6 km/h 8.0 km/h 64 % 0.0 mm
08:52 21.8 °C 14.7 °C 1021.2 hPa North 4.8 km/h 8.0 km/h 64 % 0.0 mm
09:02 21.7 °C 14.3 °C 1021.2 hPa NNE 9.7 km/h 9.7 km/h 63 % 0.0 mm
09:07 21.7 °C 14.3 °C 1021.2 hPa NNW 6.4 km/h 14.5 km/h 63 % 0.0 mm
09:12 21.9 °C 14.3 °C 1021.2 hPa NE 9.7 km/h 14.5 km/h 62 % 0.0 mm
09:17 21.9 °C 14.5 °C 1021.2 hPa WSW 1.6 km/h 14.5 km/h 63 % 0.0 mm
09:27 22.2 °C 14.6 °C 1021.2 hPa NNW 8.0 km/h 11.3 km/h 62 % 0.0 mm
09:32 22.5 °C 14.6 °C 1021.2 hPa NW 4.8 km/h 11.3 km/h 61 % 0.0 mm
09:37 22.6 °C 14.7 °C 1021.2 hPa ENE 3.2 km/h 11.3 km/h 61 % 0.0 mm
09:42 22.8 °C 14.9 °C 1021.2 hPa NE 3.2 km/h 11.3 km/h 61 % 0.0 mm
09:52 23.2 °C 15.0 °C 1021.6 hPa NE 3.2 km/h 12.9 km/h 60 % 0.0 mm
09:57 23.3 °C 14.8 °C 1021.2 hPa NNW 3.2 km/h 12.9 km/h 59 % 0.0 mm
10:02 23.4 °C 14.9 °C 1021.2 hPa NNE 3.2 km/h 12.9 km/h 59 % 0.0 mm
10:17 23.8 °C 15.3 °C 1021.2 hPa ENE 3.2 km/h 12.9 km/h 59 % 0.0 mm
10:27 23.9 °C 15.1 °C 1021.6 hPa East 8.0 km/h 14.5 km/h 58 % 0.0 mm
10:32 24.0 °C 15.2 °C 1021.6 hPa NE 6.4 km/h 17.7 km/h 58 % 0.0 mm
10:37 24.3 °C 15.2 °C 1021.6 hPa ENE 8.0 km/h 17.7 km/h 57 % 0.0 mm
10:42 24.3 °C 15.2 °C 1021.6 hPa ENE 6.4 km/h 17.7 km/h 57 % 0.0 mm
10:52 24.3 °C 15.5 °C 1021.6 hPa NE 4.8 km/h 14.5 km/h 58 % 0.0 mm
11:02 24.5 °C 15.4 °C 1021.6 hPa NE 8.0 km/h 14.5 km/h 57 % 0.0 mm
11:12 24.8 °C 15.4 °C 1021.6 hPa NE 6.4 km/h 14.5 km/h 56 % 0.0 mm
11:17 24.9 °C 15.8 °C 1021.6 hPa ENE 9.7 km/h 16.1 km/h 57 % 0.0 mm
11:22 25.1 °C 15.7 °C 1021.6 hPa East 3.2 km/h 16.1 km/h 56 % 0.0 mm
11:32 25.3 °C 15.9 °C 1021.2 hPa NNE 4.8 km/h 14.5 km/h 56 % 0.0 mm
11:37 25.5 °C 15.8 °C 1021.2 hPa ENE 12.9 km/h 14.5 km/h 55 % 0.0 mm
11:42 25.7 °C 16.0 °C 1021.2 hPa NNE 6.4 km/h 16.1 km/h 55 % 0.0 mm
11:52 25.9 °C 15.9 °C 1021.2 hPa ENE 4.8 km/h 16.1 km/h 54 % 0.0 mm
12:02 26.3 °C 16.0 °C 1021.2 hPa NE 9.7 km/h 16.1 km/h 53 % 0.0 mm
12:12 26.6 °C 16.2 °C 1021.2 hPa NE 8.0 km/h 16.1 km/h 53 % 0.0 mm
12:17 26.7 °C 15.7 °C 1021.2 hPa NNE 8.0 km/h 16.1 km/h 51 % 0.0 mm
12:22 27.0 °C 16.3 °C 1021.2 hPa NE 11.3 km/h 14.5 km/h 52 % 0.0 mm
12:32 27.4 °C 16.4 °C 1020.9 hPa NNE 12.9 km/h 16.1 km/h 51 % 0.0 mm
12:42 27.6 °C 16.2 °C 1020.9 hPa NNE 11.3 km/h 17.7 km/h 50 % 0.0 mm
12:52 28.0 °C 16.0 °C 1020.9 hPa North 8.0 km/h 17.7 km/h 48 % 0.0 mm
12:57 28.2 °C 16.1 °C 1020.9 hPa NE 3.2 km/h 17.7 km/h 48 % 0.0 mm
13:02 28.3 °C 15.9 °C 1020.9 hPa NNE 12.9 km/h 17.7 km/h 47 % 0.0 mm
13:12 28.8 °C 16.0 °C 1020.9 hPa ENE 4.8 km/h 14.5 km/h 46 % 0.0 mm
13:17 28.7 °C 15.9 °C 1020.9 hPa ENE 8.0 km/h 16.1 km/h 46 % 0.0 mm
13:22 28.7 °C 15.6 °C 1020.9 hPa NE 6.4 km/h 16.1 km/h 45 % 0.0 mm
13:32 28.9 °C 15.4 °C 1020.5 hPa NE 9.7 km/h 16.1 km/h 44 % 0.0 mm
13:37 29.1 °C 15.6 °C 1020.5 hPa ENE 4.8 km/h 17.7 km/h 44 % 0.0 mm
13:42 29.3 °C 15.4 °C 1020.5 hPa ENE 6.4 km/h 17.7 km/h 43 % 0.0 mm
13:52 29.4 °C 15.5 °C 1020.5 hPa NNE 8.0 km/h 16.1 km/h 43 % 0.0 mm
13:57 29.3 °C 15.4 °C 1020.5 hPa ENE 4.8 km/h 22.5 km/h 43 % 0.0 mm
14:07 29.6 °C 15.7 °C 1020.5 hPa NE 9.7 km/h 22.5 km/h 43 % 0.0 mm
14:12 29.7 °C 15.0 °C 1020.5 hPa NE 8.0 km/h 14.5 km/h 41 % 0.0 mm
14:22 29.8 °C 15.5 °C 1020.2 hPa North 4.8 km/h 19.3 km/h 42 % 0.0 mm
14:32 30.4 °C 15.7 °C 1020.2 hPa NE 8.0 km/h 14.5 km/h 41 % 0.0 mm
14:37 30.2 °C 15.1 °C 1020.2 hPa NE 3.2 km/h 16.1 km/h 40 % 0.0 mm
14:42 30.3 °C 15.6 °C 1020.2 hPa NE 6.4 km/h 16.1 km/h 41 % 0.0 mm
14:47 30.3 °C 15.2 °C 1020.2 hPa SE 4.8 km/h 16.1 km/h 40 % 0.0 mm
14:52 30.2 °C 15.1 °C 1020.2 hPa ESE 6.4 km/h 17.7 km/h 40 % 0.0 mm
15:02 30.3 °C 15.2 °C 1020.2 hPa NW 1.6 km/h 17.7 km/h 40 % 0.0 mm
15:07 30.7 °C 15.2 °C 1020.2 hPa North 6.4 km/h 16.1 km/h 39 % 0.0 mm
15:12 30.6 °C 15.1 °C 1019.9 hPa NE 8.0 km/h 19.3 km/h 39 % 0.0 mm
15:17 30.6 °C 15.5 °C 1019.9 hPa ENE 8.0 km/h 19.3 km/h 40 % 0.0 mm
15:22 30.3 °C 15.2 °C 1019.9 hPa ENE 17.7 km/h 19.3 km/h 40 % 0.0 mm
15:32 30.2 °C 15.1 °C 1019.9 hPa NNE 6.4 km/h 19.3 km/h 40 % 0.0 mm
15:37 30.5 °C 15.0 °C 1019.9 hPa NNE 17.7 km/h 20.9 km/h 39 % 0.0 mm
15:42 30.4 °C 14.9 °C 1019.9 hPa NE 14.5 km/h 20.9 km/h 39 % 0.0 mm
15:47 30.6 °C 15.1 °C 1019.9 hPa North 4.8 km/h 20.9 km/h 39 % 0.0 mm
15:52 30.7 °C 15.2 °C 1019.9 hPa East 3.2 km/h 20.9 km/h 39 % 0.0 mm
15:57 30.8 °C 14.8 °C 1019.5 hPa North 9.7 km/h 20.9 km/h 38 % 0.0 mm
16:02 30.8 °C 15.2 °C 1019.5 hPa NE 16.1 km/h 16.1 km/h 39 % 0.0 mm
16:12 30.6 °C 15.1 °C 1019.5 hPa NE 17.7 km/h 20.9 km/h 39 % 0.0 mm
16:22 30.6 °C 15.1 °C 1019.5 hPa NE 12.9 km/h 24.1 km/h 39 % 0.0 mm
16:27 30.6 °C 15.1 °C 1019.5 hPa NE 12.9 km/h 24.1 km/h 39 % 0.0 mm
16:32 30.6 °C 15.1 °C 1019.5 hPa ENE 17.7 km/h 17.7 km/h 39 % 0.0 mm
16:42 30.6 °C 15.1 °C 1019.5 hPa NE 12.9 km/h 17.7 km/h 39 % 0.0 mm
16:52 30.7 °C 14.8 °C 1019.5 hPa NE 4.8 km/h 19.3 km/h 38 % 0.0 mm
16:57 30.8 °C 14.4 °C 1019.5 hPa NNE 6.4 km/h 19.3 km/h 37 % 0.0 mm
17:02 30.9 °C 14.9 °C 1019.5 hPa NE 17.7 km/h 17.7 km/h 38 % 0.0 mm
17:12 30.7 °C 14.8 °C 1019.2 hPa Calm   19.3 km/h 38 % 0.0 mm
17:22 30.8 °C 14.8 °C 1019.2 hPa NNE 9.7 km/h 22.5 km/h 38 % 0.0 mm
17:32 30.8 °C 14.8 °C 1019.2 hPa North 14.5 km/h 22.5 km/h 38 % 0.0 mm
17:37 30.7 °C 14.3 °C 1019.2 hPa NNW 1.6 km/h 17.7 km/h 37 % 0.0 mm
17:42 30.7 °C 14.8 °C 1019.2 hPa NNW 3.2 km/h 17.7 km/h 38 % 0.0 mm
17:52 30.7 °C 14.8 °C 1019.2 hPa ENE 4.8 km/h 17.7 km/h 38 % 0.0 mm
17:57 30.8 °C 14.8 °C 1019.2 hPa NNE 17.7 km/h 17.7 km/h 38 % 0.0 mm
18:02 30.5 °C 14.6 °C 1019.2 hPa NE 4.8 km/h 17.7 km/h 38 % 0.0 mm
18:12 30.6 °C 14.7 °C 1019.2 hPa ENE 9.7 km/h 17.7 km/h 38 % 0.0 mm
18:17 30.6 °C 14.7 °C 1018.8 hPa NE 6.4 km/h 17.7 km/h 38 % 0.0 mm
18:22 30.5 °C 14.6 °C 1018.8 hPa NNE 8.0 km/h 16.1 km/h 38 % 0.0 mm
18:32 30.6 °C 14.7 °C 1018.8 hPa ENE 8.0 km/h 14.5 km/h 38 % 0.0 mm
18:37 30.7 °C 14.3 °C 1018.8 hPa NNE 6.4 km/h 14.5 km/h 37 % 0.0 mm
18:42 30.5 °C 14.6 °C 1018.8 hPa East 8.0 km/h 16.1 km/h 38 % 0.0 mm
18:47 30.3 °C 14.4 °C 1018.8 hPa ENE 3.2 km/h 17.7 km/h 38 % 0.0 mm
18:52 30.4 °C 14.5 °C 1018.8 hPa North 4.8 km/h 17.7 km/h 38 % 0.0 mm
18:57 30.2 °C 14.7 °C 1018.8 hPa NNE 6.4 km/h 17.7 km/h 39 % 0.0 mm
19:02 30.3 °C 14.4 °C 1018.8 hPa NE 3.2 km/h 16.1 km/h 38 % 0.0 mm
19:12 30.2 °C 14.3 °C 1018.8 hPa North 6.4 km/h 16.1 km/h 38 % 0.0 mm
19:17 30.1 °C 14.2 °C 1018.8 hPa North 16.1 km/h 20.9 km/h 38 % 0.0 mm
19:22 29.9 °C 14.0 °C 1018.8 hPa NE 11.3 km/h 22.5 km/h 38 % 0.0 mm
19:32 29.8 °C 14.0 °C 1018.8 hPa NNE 9.7 km/h 22.5 km/h 38 % 0.0 mm
19:37 29.7 °C 13.9 °C 1018.8 hPa North 11.3 km/h 19.3 km/h 38 % 0.0 mm
19:42 29.6 °C 13.8 °C 1018.8 hPa NNW 12.9 km/h 17.7 km/h 38 % 0.0 mm
19:52 29.4 °C 13.2 °C 1018.8 hPa NNE 6.4 km/h 17.7 km/h 37 % 0.0 mm
19:57 29.3 °C 13.1 °C 1018.8 hPa NNE 4.8 km/h 19.3 km/h 37 % 0.0 mm
20:02 29.3 °C 13.1 °C 1019.2 hPa NE 6.4 km/h 19.3 km/h 37 % 0.0 mm
20:12 29.0 °C 13.2 °C 1019.2 hPa North 4.8 km/h 16.1 km/h 38 % 0.0 mm
20:17 28.8 °C 13.1 °C 1019.2 hPa NNE 12.9 km/h 16.1 km/h 38 % 0.0 mm
20:22 28.6 °C 12.9 °C 1019.2 hPa North 3.2 km/h 16.1 km/h 38 % 0.0 mm
20:32 28.2 °C 12.9 °C 1019.2 hPa NE 6.4 km/h 16.1 km/h 39 % 0.0 mm
20:37 27.9 °C 12.7 °C 1019.2 hPa NE 12.9 km/h 16.1 km/h 39 % 0.0 mm
20:42 27.7 °C 12.9 °C 1019.2 hPa NE 6.4 km/h 16.1 km/h 40 % 0.0 mm
20:52 27.1 °C 12.7 °C 1019.5 hPa NE 4.8 km/h 14.5 km/h 41 % 0.0 mm
20:57 26.8 °C 12.4 °C 1019.5 hPa NNW 3.2 km/h 14.5 km/h 41 % 0.0 mm
21:02 26.5 °C 12.5 °C 1019.5 hPa NNW 1.6 km/h 11.3 km/h 42 % 0.0 mm
21:12 26.1 °C 12.9 °C 1019.5 hPa WNW 3.2 km/h 9.7 km/h 44 % 0.0 mm
21:17 25.8 °C 12.6 °C 1019.5 hPa NE 3.2 km/h 11.3 km/h 44 % 0.0 mm
21:22 25.7 °C 12.5 °C 1019.5 hPa NNE 9.7 km/h 12.9 km/h 44 % 0.0 mm
21:32 25.4 °C 12.6 °C 1019.9 hPa NNW 3.2 km/h 16.1 km/h 45 % 0.0 mm
21:37 25.2 °C 12.8 °C 1019.9 hPa NE 4.8 km/h 16.1 km/h 46 % 0.0 mm
21:42 25.1 °C 12.7 °C 1019.9 hPa NE 8.0 km/h 12.9 km/h 46 % 0.0 mm
21:52 25.1 °C 13.0 °C 1019.9 hPa NE 14.5 km/h 19.3 km/h 47 % 0.0 mm
21:57 24.9 °C 12.8 °C 1020.2 hPa NE 4.8 km/h 20.9 km/h 47 % 0.0 mm
22:02 24.8 °C 13.0 °C 1020.2 hPa NNE 14.5 km/h 20.9 km/h 48 % 0.0 mm
22:07 24.7 °C 13.0 °C 1020.2 hPa NE 9.7 km/h 22.5 km/h 48 % 0.0 mm
22:12 24.6 °C 12.9 °C 1020.2 hPa NNW 6.4 km/h 22.5 km/h 48 % 0.0 mm
22:22 24.3 °C 12.9 °C 1020.2 hPa NE 8.0 km/h 19.3 km/h 49 % 0.0 mm
22:32 24.0 °C 12.6 °C 1020.2 hPa NNE 4.8 km/h 17.7 km/h 49 % 0.0 mm
22:37 23.9 °C 12.5 °C 1020.2 hPa NE 8.0 km/h 17.7 km/h 49 % 0.0 mm
22:42 23.8 °C 12.4 °C 1020.2 hPa NE 17.7 km/h 17.7 km/h 49 % 0.0 mm
22:47 23.8 °C 12.4 °C 1020.2 hPa NE 6.4 km/h 19.3 km/h 49 % 0.0 mm
22:52 23.6 °C 12.6 °C 1020.2 hPa North 4.8 km/h 19.3 km/h 50 % 0.0 mm
22:57 23.4 °C 12.4 °C 1020.2 hPa ENE 6.4 km/h 19.3 km/h 50 % 0.0 mm
23:02 23.3 °C 12.3 °C 1020.2 hPa NNE 6.4 km/h 17.7 km/h 50 % 0.0 mm
23:12 22.9 °C 12.2 °C 1020.2 hPa North 4.8 km/h 14.5 km/h 51 % 0.0 mm
23:22 22.6 °C 12.2 °C 1020.2 hPa NNE 8.0 km/h 11.3 km/h 52 % 0.0 mm
23:32 22.3 °C 12.3 °C 1020.2 hPa Calm   11.3 km/h 53 % 0.0 mm
23:42 22.2 °C 12.4 °C 1020.2 hPa North 6.4 km/h 14.5 km/h 54 % 0.0 mm
23:52 22.1 °C 12.6 °C 1020.2 hPa NNW 3.2 km/h 14.5 km/h 55 % 0.0 mm
23:57 21.9 °C 12.5 °C 1020.2 hPa North 4.8 km/h 11.3 km/h 55 % 0.0 mm
Meteo18
Compliments of Weather Underground - 4 mb

Script developed by  Jim McMurry - jmcmurry@mwt.net Adapted for the template by  Wim van der Kuil - Leuven-Template.eu

You find our weather info also at:

European Weather Network

Weather Underground

Equipment we use:

Weather-station
Davis Vue

Weather-program
Meteohub

Weather-server
Raspberry PI 2 B+

Provider
1 and 1

Davis Vue

Meteohub

Raspberry PI 2 B+

1 and 1